AXM6354 WBGG-WBKK

Flight info

Callsign AXM6354
Flight time 1h 28m
Altitude 37000
Route KIKAK1D KIKAK DCT PILAX G580 BRU M646 DULIM DULIM2B
Aircraft A20N/M-SDE2E3FGHIRWXY/LB1

Departure

Time 2026-04-19 11:06
Airport Kuching International Airport (WBGG)

Arrival

Time 2026-04-19 12:34
Airport Kota Kinabalu International Airport (WBKK)
Time Latitude Longitude Altitude Speed Heading
2026-04-19 10:36 1.48693 110.34315 78 ft 0 kts 338°
2026-04-19 10:56 1.48682 110.34319 68 ft 3 kts 338°
2026-04-19 10:56 1.48666 110.34326 67 ft 3 kts 338°
2026-04-19 10:56 1.48647 110.34333 70 ft 3 kts 338°
2026-04-19 10:56 1.48633 110.34338 70 ft 1 kts 355°
2026-04-19 10:57 1.48626 110.34338 72 ft 1 kts
2026-04-19 10:57 1.48619 110.34337 71 ft 1 kts 23°
2026-04-19 10:57 1.48612 110.34334 68 ft 1 kts 38°
2026-04-19 10:57 1.48610 110.34332 68 ft 0 kts 43°
2026-04-19 10:59 1.48612 110.34336 69 ft 1 kts 56°
2026-04-19 11:00 1.48622 110.34356 72 ft 5 kts 62°
2026-04-19 11:00 1.48643 110.34395 71 ft 8 kts 62°
2026-04-19 11:00 1.48661 110.34453 77 ft 10 kts 70°
2026-04-19 11:00 1.48689 110.34525 75 ft 12 kts 68°
2026-04-19 11:01 1.48664 110.34584 74 ft 10 kts 139°
2026-04-19 11:01 1.48662 110.34646 70 ft 8 kts 68°
2026-04-19 11:01 1.48687 110.34708 75 ft 11 kts 68°
2026-04-19 11:01 1.48721 110.34790 71 ft 15 kts 68°
2026-04-19 11:02 1.48755 110.34879 70 ft 16 kts 69°
2026-04-19 11:02 1.48799 110.34994 70 ft 16 kts 69°
2026-04-19 11:02 1.48841 110.35101 66 ft 18 kts 69°
2026-04-19 11:02 1.48889 110.35225 63 ft 20 kts 68°
2026-04-19 11:03 1.48944 110.35361 64 ft 22 kts 67°
2026-04-19 11:03 1.49006 110.35513 59 ft 25 kts 68°
2026-04-19 11:03 1.49069 110.35674 56 ft 21 kts 69°
2026-04-19 11:03 1.49121 110.35803 60 ft 18 kts 68°
2026-04-19 11:04 1.49149 110.35911 52 ft 13 kts 107°
2026-04-19 11:04 1.49095 110.35951 54 ft 4 kts 153°
2026-04-19 11:04 1.49086 110.35956 57 ft 0 kts 153°
2026-04-19 11:04 1.49085 110.35956 58 ft 2 kts 153°
2026-04-19 11:05 1.49055 110.35971 57 ft 6 kts 153°
2026-04-19 11:05 1.49008 110.35973 60 ft 8 kts 223°
2026-04-19 11:05 1.48984 110.35925 61 ft 8 kts 245°
2026-04-19 11:05 1.48939 110.35810 68 ft 42 kts 249°
2026-04-19 11:06 1.48754 110.35345 71 ft 100 kts 249°
2026-04-19 11:06 1.48445 110.34553 87 ft 143 kts 249°
2026-04-19 11:06 1.48064 110.33550 382 ft 154 kts 249°
2026-04-19 11:06 1.47682 110.32551 882 ft 155 kts 250°
2026-04-19 11:07 1.47295 110.31534 1275 ft 159 kts 257°
2026-04-19 11:07 1.47238 110.30437 1686 ft 157 kts 286°
2026-04-19 11:07 1.47714 110.29442 1969 ft 168 kts 314°
2026-04-19 11:07 1.48639 110.28823 2189 ft 184 kts 344°
2026-04-19 11:08 1.49849 110.28773 2389 ft 207 kts 17°
2026-04-19 11:08 1.51003 110.29465 2937 ft 222 kts 50°
2026-04-19 11:08 1.51674 110.30833 3953 ft 220 kts 84°
2026-04-19 11:08 1.51497 110.32315 5003 ft 217 kts 117°
2026-04-19 11:09 1.50549 110.33466 5930 ft 218 kts 150°
2026-04-19 11:09 1.49111 110.33924 6750 ft 222 kts 182°
2026-04-19 11:09 1.47633 110.33526 7566 ft 225 kts 214°
2026-04-19 11:09 1.46578 110.32382 8413 ft 228 kts 246°
2026-04-19 11:10 1.46282 110.30831 9269 ft 232 kts 277°
2026-04-19 11:10 1.46846 110.29331 10073 ft 235 kts 309°
2026-04-19 11:10 1.48120 110.28321 10845 ft 238 kts 339°
2026-04-19 11:10 1.49744 110.28101 11625 ft 240 kts
2026-04-19 11:11 1.51411 110.28564 11982 ft 264 kts 20°
2026-04-19 11:11 1.52944 110.29568 12210 ft 289 kts 46°
2026-04-19 11:11 1.54063 110.31150 12442 ft 313 kts 59°
2026-04-19 11:11 1.55170 110.33114 12683 ft 337 kts 59°
2026-04-19 11:12 1.56424 110.35183 12998 ft 356 kts 56°
2026-04-19 11:12 1.57822 110.37244 13735 ft 360 kts 53°
2026-04-19 11:12 1.59296 110.39275 14422 ft 364 kts 52°
2026-04-19 11:12 1.60830 110.41318 15046 ft 370 kts 52°
2026-04-19 11:13 1.62399 110.43381 15696 ft 375 kts 51°
2026-04-19 11:13 1.63995 110.45472 16331 ft 381 kts 51°
2026-04-19 11:13 1.65476 110.47416 16912 ft 386 kts 51°
2026-04-19 11:13 1.67111 110.49564 17534 ft 391 kts 51°
2026-04-19 11:14 1.68769 110.51745 18157 ft 397 kts 51°
2026-04-19 11:14 1.70444 110.53950 18745 ft 399 kts 51°
2026-04-19 11:14 1.72104 110.56137 19379 ft 401 kts 51°
2026-04-19 11:14 1.73769 110.58330 19996 ft 403 kts 51°
2026-04-19 11:15 1.75493 110.60601 20591 ft 406 kts 51°
2026-04-19 11:15 1.77209 110.62863 21171 ft 409 kts 51°
2026-04-19 11:15 1.78932 110.65134 21747 ft 411 kts 51°
2026-04-19 11:15 1.80662 110.67414 22284 ft 414 kts 51°
2026-04-19 11:16 1.82408 110.69716 22816 ft 416 kts 51°
2026-04-19 11:16 1.84159 110.72024 23340 ft 418 kts 52°
2026-04-19 11:16 1.85923 110.74350 23756 ft 421 kts 52°
2026-04-19 11:16 1.87694 110.76685 24161 ft 423 kts 52°
2026-04-19 11:17 1.89478 110.79038 24546 ft 425 kts 52°
2026-04-19 11:17 1.91270 110.81401 24923 ft 428 kts 52°
2026-04-19 11:17 1.93069 110.83774 25292 ft 429 kts 52°
2026-04-19 11:17 1.94876 110.86159 25597 ft 432 kts 52°
2026-04-19 11:18 1.96693 110.88556 25907 ft 433 kts 52°
2026-04-19 11:18 1.98518 110.90964 26221 ft 435 kts 52°
2026-04-19 11:18 2.00349 110.93381 26521 ft 437 kts 52°
2026-04-19 11:18 2.02188 110.95807 26809 ft 439 kts 52°
2026-04-19 11:19 2.04032 110.98240 27091 ft 440 kts 52°
2026-04-19 11:19 2.05887 111.00688 27385 ft 442 kts 52°
2026-04-19 11:19 2.07746 111.03141 27669 ft 444 kts 52°
2026-04-19 11:19 2.09446 111.05385 27915 ft 445 kts 52°
2026-04-19 11:20 2.11317 111.07855 28184 ft 447 kts 52°
2026-04-19 11:20 2.13198 111.10338 28438 ft 449 kts 52°
2026-04-19 11:20 2.15063 111.12800 28686 ft 449 kts 52°
2026-04-19 11:20 2.16955 111.15298 28878 ft 451 kts 52°
2026-04-19 11:21 2.18853 111.17804 29117 ft 453 kts 52°
2026-04-19 11:21 2.20759 111.20321 29366 ft 455 kts 52°
2026-04-19 11:21 2.22669 111.22843 29617 ft 456 kts 52°
2026-04-19 11:22 2.26514 111.27920 30057 ft 459 kts 52°
2026-04-19 11:22 2.28445 111.30471 30254 ft 461 kts 52°
2026-04-19 11:22 2.30383 111.33031 30456 ft 463 kts 52°
2026-04-19 11:22 2.32332 111.35606 30658 ft 465 kts 52°
2026-04-19 11:23 2.34287 111.38188 30859 ft 467 kts 52°
2026-04-19 11:23 2.36248 111.40778 31115 ft 467 kts 52°
2026-04-19 11:23 2.38209 111.43369 31385 ft 467 kts 52°
2026-04-19 11:23 2.40173 111.45964 31645 ft 467 kts 52°
2026-04-19 11:24 2.42133 111.48554 31901 ft 468 kts 52°
2026-04-19 11:24 2.44095 111.51146 32141 ft 468 kts 52°
2026-04-19 11:24 2.46059 111.53741 32400 ft 468 kts 52°
2026-04-19 11:24 2.48022 111.56336 32651 ft 468 kts 52°
2026-04-19 11:25 2.49987 111.58932 32893 ft 468 kts 52°
2026-04-19 11:25 2.51950 111.61526 33131 ft 468 kts 52°
2026-04-19 11:25 2.53913 111.64122 33359 ft 468 kts 52°
2026-04-19 11:25 2.55874 111.66714 33589 ft 468 kts 52°
2026-04-19 11:26 2.57840 111.69312 33812 ft 468 kts 52°
2026-04-19 11:26 2.59802 111.71907 34018 ft 468 kts 52°
2026-04-19 11:26 2.61768 111.74506 34218 ft 468 kts 52°
2026-04-19 11:26 2.63728 111.77097 34410 ft 467 kts 52°
2026-04-19 11:27 2.65687 111.79688 34596 ft 467 kts 52°
2026-04-19 11:27 2.67649 111.82281 34769 ft 467 kts 52°
2026-04-19 11:27 2.68946 111.83997 34893 ft 467 kts 52°
2026-04-19 11:27 2.71565 111.87460 35136 ft 467 kts 52°
2026-04-19 11:28 2.73521 111.90048 35321 ft 467 kts 52°
2026-04-19 11:28 2.74818 111.91762 35443 ft 466 kts 52°
2026-04-19 11:28 2.77409 111.95190 35685 ft 466 kts 52°
2026-04-19 11:28 2.79366 111.97778 35865 ft 466 kts 52°
2026-04-19 11:29 2.81322 112.00366 36048 ft 466 kts 52°
2026-04-19 11:29 2.83276 112.02950 36226 ft 466 kts 52°
2026-04-19 11:29 2.85228 112.05533 36405 ft 465 kts 52°
2026-04-19 11:29 2.87177 112.08113 36594 ft 465 kts 52°
2026-04-19 11:30 2.89127 112.10692 36770 ft 464 kts 52°
2026-04-19 11:30 2.92361 112.14972 36845 ft 464 kts 52°
2026-04-19 11:31 2.96016 112.19810 36840 ft 463 kts 52°
2026-04-19 11:31 2.99900 112.24951 36840 ft 463 kts 52°
2026-04-19 11:32 3.03776 112.30082 36841 ft 462 kts 52°
2026-04-19 11:32 3.07647 112.35208 36845 ft 462 kts 52°
2026-04-19 11:33 3.11516 112.40331 36840 ft 461 kts 52°
2026-04-19 11:33 3.15385 112.45455 36837 ft 461 kts 52°
2026-04-19 11:34 3.19249 112.50573 36841 ft 461 kts 52°
2026-04-19 11:34 3.23109 112.55687 36839 ft 461 kts 52°
2026-04-19 11:35 3.26971 112.60804 36835 ft 460 kts 52°
2026-04-19 11:35 3.30829 112.65917 36838 ft 460 kts 52°
2026-04-19 11:36 3.34686 112.71029 36836 ft 460 kts 52°
2026-04-19 11:36 3.38543 112.76141 36836 ft 460 kts 52°
2026-04-19 11:37 3.42402 112.81258 36841 ft 460 kts 52°
2026-04-19 11:37 3.46267 112.86379 36840 ft 461 kts 51°
2026-04-19 11:38 3.50134 112.91496 36843 ft 461 kts 52°
2026-04-19 11:38 3.53997 112.96609 36846 ft 461 kts 51°
2026-04-19 11:39 3.57837 113.01690 36847 ft 461 kts 52°
2026-04-19 11:39 3.61705 113.06813 36848 ft 461 kts 52°
2026-04-19 11:40 3.65572 113.11935 36850 ft 461 kts 52°
2026-04-19 11:40 3.69439 113.17058 36847 ft 461 kts 52°
2026-04-19 11:41 3.73332 113.22216 36848 ft 461 kts 52°
2026-04-19 11:41 3.77198 113.27340 36850 ft 461 kts 52°
2026-04-19 11:42 3.81039 113.32431 36848 ft 461 kts 52°
2026-04-19 11:42 3.84905 113.37555 36852 ft 461 kts 52°
2026-04-19 11:43 3.88768 113.42676 36849 ft 461 kts 52°
2026-04-19 11:43 3.92629 113.47795 36850 ft 461 kts 52°
2026-04-19 11:44 3.96490 113.52915 36846 ft 460 kts 52°
2026-04-19 11:44 4.00345 113.58027 36849 ft 460 kts 52°
2026-04-19 11:45 4.04199 113.63140 36849 ft 460 kts 52°
2026-04-19 11:45 4.08052 113.68253 36848 ft 459 kts 52°
2026-04-19 11:46 4.11734 113.73140 36845 ft 459 kts 52°
2026-04-19 11:46 4.15581 113.78245 36841 ft 459 kts 52°
2026-04-19 11:47 4.19426 113.83350 36835 ft 458 kts 52°
2026-04-19 11:47 4.23264 113.88448 36832 ft 458 kts 52°
2026-04-19 11:48 4.27100 113.93541 36827 ft 458 kts 52°
2026-04-19 11:48 4.30870 113.98680 36828 ft 458 kts 56°
2026-04-19 11:49 4.34262 114.04077 36828 ft 458 kts 57°
2026-04-19 11:49 4.37536 114.09265 36825 ft 458 kts 57°
2026-04-19 12:09 4.39836 114.12907 36842 ft 459 kts 57°
2026-04-19 12:09 4.43251 114.18323 36838 ft 458 kts 57°
2026-04-19 12:10 4.46537 114.23533 36838 ft 458 kts 57°
2026-04-19 12:10 4.48241 114.26234 36725 ft 458 kts 57°
2026-04-19 12:10 4.49942 114.28932 36572 ft 458 kts 57°
2026-04-19 12:10 4.51644 114.31634 36307 ft 458 kts 57°
2026-04-19 12:11 4.53345 114.34333 36039 ft 458 kts 57°
2026-04-19 12:11 4.55045 114.37031 35778 ft 458 kts 57°
2026-04-19 12:11 4.56749 114.39735 35518 ft 459 kts 57°
2026-04-19 12:11 4.58453 114.42439 35261 ft 459 kts 57°
2026-04-19 12:12 4.60161 114.45151 35005 ft 460 kts 57°
2026-04-19 12:12 4.61873 114.47869 34751 ft 461 kts 57°
2026-04-19 12:12 4.63583 114.50584 34503 ft 461 kts 57°
2026-04-19 12:12 4.65297 114.53306 34254 ft 462 kts 57°
2026-04-19 12:13 4.67010 114.56026 34013 ft 462 kts 57°
2026-04-19 12:13 4.68727 114.58753 33753 ft 462 kts 57°
2026-04-19 12:13 4.70443 114.61479 33479 ft 463 kts 57°
2026-04-19 12:13 4.72162 114.64209 33212 ft 464 kts 57°
2026-04-19 12:14 4.73883 114.66942 32955 ft 464 kts 57°
2026-04-19 12:14 4.75610 114.69687 32705 ft 465 kts 57°
2026-04-19 12:14 4.77341 114.72438 32158 ft 467 kts 57°
2026-04-19 12:14 4.79083 114.75204 31327 ft 472 kts 57°
2026-04-19 12:15 4.80244 114.77050 30734 ft 475 kts 57°
2026-04-19 12:15 4.81999 114.79840 30174 ft 470 kts 57°
2026-04-19 12:15 4.83740 114.82607 29463 ft 468 kts 57°
2026-04-19 12:15 4.85464 114.85351 28919 ft 461 kts 57°
2026-04-19 12:16 4.86991 114.87732 28383 ft 457 kts 54°
2026-04-19 12:16 4.89675 114.91052 27580 ft 450 kts 47°
2026-04-19 12:16 4.91759 114.93390 26975 ft 446 kts 47°
2026-04-19 12:16 4.93146 114.94955 26536 ft 445 kts 48°
2026-04-19 12:17 4.95189 114.97265 25965 ft 441 kts 48°
2026-04-19 12:17 4.97191 114.99531 25355 ft 438 kts 47°
2026-04-19 12:17 4.99231 115.01840 24773 ft 435 kts 47°
2026-04-19 12:17 5.01226 115.04096 24203 ft 432 kts 47°
2026-04-19 12:18 5.03211 115.06342 23627 ft 429 kts 47°
2026-04-19 12:18 5.05166 115.08554 23001 ft 427 kts 47°
2026-04-19 12:18 5.07124 115.10769 22428 ft 422 kts 47°
2026-04-19 12:18 5.09058 115.12958 21842 ft 417 kts 47°
2026-04-19 12:19 5.10976 115.15128 21270 ft 414 kts 47°
2026-04-19 12:19 5.12874 115.17275 20697 ft 410 kts 47°
2026-04-19 12:19 5.14761 115.19412 20114 ft 407 kts 47°
2026-04-19 12:19 5.16635 115.21532 19520 ft 405 kts 47°
2026-04-19 12:20 5.18498 115.23641 18946 ft 403 kts 47°
2026-04-19 12:20 5.20351 115.25738 18386 ft 401 kts 47°
2026-04-19 12:20 5.22193 115.27824 17774 ft 399 kts 47°
2026-04-19 12:20 5.24024 115.29897 17246 ft 394 kts 47°
2026-04-19 12:21 5.25834 115.31946 16688 ft 390 kts 47°
2026-04-19 12:21 5.27628 115.33978 16135 ft 387 kts 47°
2026-04-19 12:21 5.29402 115.35987 15585 ft 383 kts 47°
2026-04-19 12:21 5.31166 115.37985 15029 ft 381 kts 48°
2026-04-19 12:22 5.32915 115.39965 14463 ft 378 kts 48°
2026-04-19 12:22 5.34656 115.41937 13921 ft 375 kts 48°
2026-04-19 12:22 5.36360 115.43867 13384 ft 372 kts 48°
2026-04-19 12:22 5.38068 115.45801 12843 ft 368 kts 48°
2026-04-19 12:23 5.38638 115.46447 12670 ft 367 kts 49°
2026-04-19 12:23 5.39897 115.47874 12384 ft 361 kts 49°
2026-04-19 12:23 5.41543 115.49739 11938 ft 356 kts 49°
2026-04-19 12:23 5.43095 115.51497 11449 ft 354 kts 49°
2026-04-19 12:24 5.44608 115.53428 10942 ft 351 kts 57°
2026-04-19 12:24 5.45809 115.55552 10468 ft 347 kts 66°
2026-04-19 12:24 5.46727 115.57739 10339 ft 333 kts 68°
2026-04-19 12:24 5.47612 115.59837 10217 ft 320 kts 68°
2026-04-19 12:25 5.48472 115.61847 10109 ft 307 kts 68°
2026-04-19 12:25 5.49271 115.63715 9841 ft 301 kts 68°
2026-04-19 12:25 5.50094 115.65645 9392 ft 302 kts 68°
2026-04-19 12:25 5.50919 115.67588 8895 ft 303 kts 68°
2026-04-19 12:26 5.51745 115.69532 8496 ft 301 kts 68°
2026-04-19 12:26 5.52562 115.71454 8131 ft 298 kts 68°
2026-04-19 12:26 5.53370 115.73357 7774 ft 296 kts 68°
2026-04-19 12:26 5.54173 115.75248 7412 ft 293 kts 67°
2026-04-19 12:27 5.55124 115.77040 7061 ft 290 kts 58°
2026-04-19 12:27 5.56200 115.78739 6714 ft 287 kts 58°
2026-04-19 12:27 5.57262 115.80434 6361 ft 285 kts 58°
2026-04-19 12:27 5.58308 115.82113 6005 ft 283 kts 58°
2026-04-19 12:28 5.60366 115.85421 5376 ft 275 kts 58°
2026-04-19 12:28 5.61428 115.86806 5125 ft 271 kts 42°
2026-04-19 12:28 5.62771 115.87849 5036 ft 275 kts 32°
2026-04-19 12:29 5.64305 115.88981 5008 ft 274 kts 41°
2026-04-19 12:29 5.65699 115.90275 4912 ft 272 kts 44°
2026-04-19 12:29 5.67037 115.91578 4585 ft 272 kts 44°
2026-04-19 12:29 5.68414 115.92904 4119 ft 276 kts 43°
2026-04-19 12:30 5.69827 115.94228 3716 ft 278 kts 41°
2026-04-19 12:30 5.71334 115.95385 3594 ft 268 kts 32°
2026-04-19 12:30 5.72944 115.96260 3479 ft 258 kts 25°
2026-04-19 12:30 5.74555 115.96973 3356 ft 248 kts 22°
2026-04-19 12:31 5.76130 115.97639 3137 ft 243 kts 23°
2026-04-19 12:31 5.77669 115.98292 2853 ft 238 kts 23°
2026-04-19 12:31 5.79068 115.98888 2597 ft 237 kts 23°
2026-04-19 12:31 5.80581 115.99529 2293 ft 233 kts 23°
2026-04-19 12:32 5.82065 116.00160 1994 ft 230 kts 24°
2026-04-19 12:32 5.83526 116.00781 1725 ft 227 kts 23°
2026-04-19 12:32 5.84926 116.01375 1470 ft 224 kts 23°
2026-04-19 12:32 5.86358 116.01984 1198 ft 222 kts 23°
2026-04-19 12:33 5.87777 116.02587 915 ft 221 kts 23°
2026-04-19 12:33 5.89059 116.03132 643 ft 216 kts 22°
2026-04-19 12:33 5.90251 116.03638 426 ft 197 kts 23°
2026-04-19 12:33 5.91414 116.04131 164 ft 179 kts 22°
2026-04-19 12:34 5.92470 116.04591 28 ft 156 kts 22°
2026-04-19 12:34 5.93251 116.04915 28 ft 102 kts 24°
2026-04-19 12:34 5.93660 116.05091 28 ft 60 kts 22°
2026-04-19 12:34 5.93888 116.05194 28 ft 15 kts 33°
2026-04-19 12:35 5.93957 116.05264 28 ft 17 kts 48°
2026-04-19 12:35 5.94038 116.05351 28 ft 17 kts 45°
2026-04-19 12:35 5.94057 116.05425 28 ft 9 kts 131°
2026-04-19 12:35 5.93998 116.05418 28 ft 10 kts 199°
2026-04-19 12:36 5.93926 116.05392 28 ft 12 kts 202°
2026-04-19 12:36 5.93855 116.05361 28 ft 10 kts 204°
2026-04-19 12:36 5.93798 116.05336 28 ft 9 kts 204°
2026-04-19 12:36 5.93744 116.05312 28 ft 8 kts 204°
2026-04-19 12:37 5.93703 116.05293 28 ft 8 kts 203°
2026-04-19 12:37 5.93643 116.05268 28 ft 11 kts 201°
2026-04-19 12:37 5.93573 116.05240 28 ft 10 kts 202°
2026-04-19 12:37 5.93511 116.05214 28 ft 9 kts 204°
2026-04-19 12:38 5.93459 116.05190 28 ft 8 kts 204°
2026-04-19 12:38 5.93414 116.05170 28 ft 6 kts 204°
2026-04-19 12:38 5.93378 116.05153 28 ft 5 kts 205°
2026-04-19 12:38 5.93348 116.05139 28 ft 4 kts 205°
2026-04-19 12:39 5.93326 116.05129 28 ft 3 kts 205°
2026-04-19 12:39 5.93276 116.05110 28 ft 15 kts 199°
2026-04-19 12:39 5.93149 116.05064 28 ft 19 kts 200°
2026-04-19 12:39 5.93035 116.05014 28 ft 17 kts 204°
2026-04-19 12:40 5.92934 116.04970 28 ft 13 kts 200°
2026-04-19 12:40 5.92865 116.04987 28 ft 9 kts 128°
2026-04-19 12:40 5.92830 116.05032 28 ft 8 kts 131°
2026-04-19 12:40 5.92789 116.05038 28 ft 5 kts 198°
2026-04-19 12:41 5.92758 116.05027 28 ft 4 kts 198°
2026-04-19 12:41 5.92735 116.05019 28 ft 3 kts 200°
2026-04-19 12:41 5.92689 116.04997 28 ft 10 kts 205°
2026-04-19 12:41 5.92625 116.04968 28 ft 10 kts 203°
2026-04-19 12:42 5.92567 116.04942 28 ft 9 kts 204°
2026-04-19 12:42 5.92516 116.04920 28 ft 7 kts 201°
2026-04-19 12:42 5.92474 116.04904 28 ft 6 kts 201°
2026-04-19 12:42 5.92439 116.04892 28 ft 4 kts 189°
2026-04-19 12:43 5.92432 116.04897 28 ft 0 kts 148°
2026-04-19 12:43 5.92426 116.04904 28 ft 3 kts 117°
2026-04-19 12:43 5.92425 116.04930 28 ft 5 kts 82°
2026-04-19 12:43 5.92428 116.04957 28 ft 2 kts 85°